Regional Weather Roundup
Issued by NWS

Home | Current Version | Previous Version | Text Only | Print | Product List | Glossary On
Versions: 1 2 3 4 5 6 7 8 9 10 11 12 13 14 15 16 17 18 19 20 21 22 23 24 25 26 27 28 29 30 31 32 33 34 35 36 37 38 39 40 41 42 43 44 45 46 47 48 49 50
748
ASUS43 KBIS 241131
RWRND
NORTH DAKOTA REGIONAL WEATHER ROUNDUP
NATIONAL WEATHER SERVICE EASTERN NORTH DAKOTA/GRAND FORKS ND
600 AM CDT WED MAY 24 2017

  NOTE: "FAIR" INDICATES FEW OR NO CLOUDS BELOW 12,000 FEET WITH NO
  SIGNIFICANT WEATHER AND/OR OBSTRUCTIONS TO VISIBILITY.

NDZ001>003-009>011-017-241200-
...NORTHWEST NORTH DAKOTA...

CITY           SKY/WX    TMP DP  RH WIND       PRES   REMARKS
WILLISTON      FAIR      52  36  54 S17G25    29.67F
MINOT          FAIR      51  38  60 S13       29.76F
MINOT AFB      FAIR      49  38  65 S13       29.75F
$$

NDZ018>021-031>035-040>046-241200-
...SOUTHWEST NORTH DAKOTA...

CITY           SKY/WX    TMP DP  RH WIND       PRES   REMARKS
BISMARCK       FAIR      35  33  92 E3        29.82F
DICKINSON      FAIR      40  33  76 S14       29.75F WCI  32
GARRISON         N/A     44  38  79 S9        29.78F
HETTINGER      FAIR      41  33  73 SE8       29.79F
$$

NDZ004>008-012>016-024-026-027-054-241200-
...NORTHEAST NORTH DAKOTA...

CITY           SKY/WX    TMP DP  RH WIND       PRES   REMARKS
GRAND FORKS    FAIR      39  38  96 CALM      29.85F
GRAND FORKS AF FAIR      37  37  99 SW3       29.84F
DEVILS LAKE    FAIR      42  39  89 CALM      29.83F
$$

NDZ022-023-025-028>030-036>039-047>053-241200-
...SOUTHEAST NORTH DAKOTA...

CITY           SKY/WX    TMP DP  RH WIND       PRES   REMARKS
JAMESTOWN      FOG       35  34  96 CALM      29.83F VSB<1/4
FARGO          FAIR      38  38 100 NE3       29.84F FOG
WAHPETON       CLOUDY    45  41  87 NE3       29.84S
$$




USA.gov is the U.S. government's official web portal to all federal, state and local government web resources and services.